Printer-friendly version

IAU Minor Planet Center

Minor Planet Center

MPEC 2000-J37: (719) Albert = 2000 JW8

The following Minor Planet Electronic Circular may be linked-to from your own Web pages, but must not otherwise be redistributed electronically.


Read MPEC 2000-J36 Read MPEC 2000-J38


M.P.E.C. 2000-J37                                Issued 2000 May  9, 22:51 UT

     The Minor Planet Electronic Circulars contain information on unusual
         minor planets and routine data on comets.  They are published
   on behalf of Commission 20 of the International Astronomical Union by the
          Minor Planet Center, Smithsonian Astrophysical Observatory,
                          Cambridge, MA 02138, U.S.A.

             Prepared using the Tamkin Foundation Computer Network

             BMARSDEN@CFA.HARVARD.EDU or GWILLIAMS@CFA.HARVARD.EDU
          URL http://cfa-www.harvard.edu/iau/mpc.html  ISSN 1523-6714

                            (719) Albert = 2000 JW8

Observations:
     K00J08W* C2000 05 01.19935 11 38 04.81 +02 35 21.7          21.6 V      691
     K00J08W  C2000 05 01.20480 11 38 04.66 +02 35 23.5          21.8 V      691
     K00J08W  C2000 05 01.21052 11 38 04.53 +02 35 24.6          21.6 V      691
     K00J08W HC2000 05 01.28906 11 38 02.47 +02 35 46.1          21.2 V      691
     K00J08W HC2000 05 01.29447 11 38 02.35 +02 35 48.1          20.8 V      691
     K00J08W HC2000 05 01.30006 11 38 02.26 +02 35 48.4          21.2 V      691
     K00J08W HC2000 05 02.17479 11 37 40.78 +02 39 31.5          21.1 V      691
     K00J08W HC2000 05 02.18447 11 37 40.51 +02 39 34.3          21.2 V      691
     K00J08W HC2000 05 02.19027 11 37 40.46 +02 39 35.8          22.3 V      691
     K00J08W  C2000 05 06.20445 11 36 12.18 +02 55 25.2          22.3 V      691
     K00J08W  C2000 05 06.22608 11 36 11.77 +02 55 29.6          22.5 V      691
     K00J08W  C2000 05 06.24140 11 36 11.42 +02 55 33.1          21.7 V      691
     K00J08W 0C2000 05 09.16403 11 35 18.54 +03 05 46.0                      695
     K00J08W 0C2000 05 09.16925 11 35 18.47 +03 05 46.8                      695
     K00J08W 0C2000 05 09.17476 11 35 18.36 +03 05 48.1                      695

Observer details:
691 Steward Observatory, Kitt Peak.  Observers J. A. Larsen, R. S. McMillan,
    J. V. Scotti.  0.9-m Spacewatch telescope.
695 Kitt Peak.  Observers M. Hicks, R. Fevig.  2.1-m reflector + CCD.

Orbital elements:
(719) Albert = 2000 JW8
Epoch 2000 Feb. 26.0 TT = JDT 2451600.5                 Williams
M 235.16761              (2000.0)            P               Q
n   0.23020839     Peri.  154.28850     +0.93421918     +0.35630105
a   2.6366670      Node   184.93048     -0.35166250     +0.91208530
e   0.5482734      Incl.   11.30945     -0.05973286     +0.20285454
P   4.28           H   15.8           G   0.15           U   4
Residuals in seconds of arc
110916 024  2.3+  3.6+    111017 024 (7.3-  6.7+)   000502 691  0.1-  0.5-
110916 024  1.6-  3.7-    111017 024 (7.6-  6.5+)   000502 691  0.5-  0.1-
111004 045  1.1+  1.5-    111018 078(17.6- 19.4+)   000502 691  1.0+  0.1-
111004 045 (4.9+  1.3-)   000501 691  0.7-  0.7-    000506 691  0.5+  0.4-
111005 035  1.5-  2.8+    000501 691  0.8-  0.3-    000506 691  1.1+  0.7-
111005 035  2.5-  0.7-    000501 691  0.5-  0.7-    000506 691  0.6+  0.6-
111011 000  0.9+  0.2-    000501 691  0.6-  0.4+    000509 695  0.3-  0.9+
111011 000  0.1+  1.2+    000501 691  0.3-  1.0+    000509 695  0.1+  0.7+
111011 000  1.3+  1.6-    000501 691  0.6+  0.1-    000509 695  0.1-  0.9+

(719) Albert = 2000 JW8
Epoch 1971 Sept. 6.0 TT = JDT 2441200.5                 Williams
M   3.91426              (2000.0)            P               Q
n   0.22954486     Peri.  154.08764     +0.93501962     +0.35414310
a   2.6417456      Node   185.26864     -0.34970595     +0.91258558
e   0.5453872      Incl.   11.25105     -0.05868616     +0.20437766
P   4.29           H   15.8           G   0.15           U   4

(719) Albert = 2000 JW8
Epoch 1941 July 25.0 TT = JDT 2430200.5                 Williams
M 351.50696              (2000.0)            P               Q
n   0.22978477     Peri.  151.95234     +0.92973982     +0.36756983
a   2.6399065      Node   186.59557     -0.36327550     +0.90597223
e   0.5471599      Incl.   10.95300     -0.06012302     +0.21001603
P   4.29           H   15.8           G   0.15           U   4

(719) Albert = 2000 JW8
Epoch 1911 Dec. 30.0 TT = JDT 2419400.5                 Williams
M  28.16735              (2000.0)            P               Q
n   0.22999175     Peri.  151.91127     +0.93079269     +0.36485439
a   2.6383225      Node   186.80706     -0.36075660     +0.90691929
e   0.5489732      Incl.   10.94293     -0.05898858     +0.21066248
P   4.29           H   15.8           G   0.15           U   4

Ephemeris:
  (719)                  a,e,i = 2.64, 0.55, 11                  q = 1.1911
Date    TT    R. A. (2000) Decl.     Delta      r     Elong.  Phase     V
2000 05 06    11 36.27   +02 54.7    2.899    3.605   127.6    12.8    21.7
2000 05 16    11 33.87   +03 25.2    2.995    3.573   117.2    14.6    21.8
2000 05 26    11 33.32   +03 42.6    3.103    3.540   107.4    15.9    21.9
2000 06 05    11 34.57   +03 47.4    3.217    3.505    98.0    16.7    22.0
2000 06 15    11 37.49   +03 40.4    3.332    3.470    89.2    17.0    22.0
2000 06 25    11 41.91   +03 22.9    3.446    3.433    80.8    17.0    22.1
2000 07 05    11 47.68   +02 55.9    3.555    3.395    72.7    16.6    22.1
2000 07 15    11 54.66   +02 20.6    3.656    3.356    65.0    15.9    22.1

Gareth V. Williams           (C) Copyright 2000 MPC           M.P.E.C. 2000-J37

Read MPEC 2000-J36 Read MPEC 2000-J38


Our Web policy. Index to the CBAT/MPC/ICQ pages.


Valid HTML 4.01!